Regional Weather Roundup
Issued by NWS Cleveland, OH

Home | Current Version | Previous Version | Graphics & Text | Print | Product List | Glossary On
Versions: 1 2 3 4 5 6 7 8 9 10 11 12 13 14 15 16 17 18 19 20 21 22 23 24 25 26 27 28 29 30 31 32 33 34 35 36 37 38 39 40 41 42 43 44 45 46 47 48 49 50
111
ASUS41 KCLE 211600
RWRCLE
OHIO REGIONAL WEATHER ROUNDUP
NATIONAL WEATHER SERVICE WILMINGTON, OH
1100 AM EST TUE NOV 21 2017

NOTE: "FAIR" INDICATES FEW OR NO CLOUDS BELOW 12,000 FEET WITH NO
SIGNIFICANT WEATHER AND/OR OBSTRUCTIONS TO VISIBILITY.

OHZ001>008-015>018-024>027-034-035-043-044-211700-
   NORTHWEST OHIO

CITY           SKY/WX    TMP DP  RH WIND       PRES   REMARKS
DEFIANCE       FAIR      47  31  53 SW17G25   29.80R
FINDLAY        FAIR      48  29  47 SW22G35   29.82S
TOLEDO EXPRESS FAIR      49  32  52 SW20G32   29.78R
TOLEDO EXEC    FAIR      48  31  51 SW23G33   29.80R
LIMA           FAIR      45  30  55 SW20G30   29.84S
$$

OHZ009>014-019>023-028>033-038-089-211700-
   NORTHEAST OHIO

CITY           SKY/WX    TMP DP  RH WIND       PRES   REMARKS
CLE-HOPKINS    PTSUNNY   50  29  44 S18G28    29.84F
CLE-LAKEFRONT  FAIR      52  27  38 S21G29    29.82S
CUY CO. ARPT   PTSUNNY   50  28  43 S17G23    29.83R
LORAIN-ELYRIA  FAIR      48  26  42 SW26G38   29.82S
ASHTABULA      FAIR      48  25  40 SW20G35   29.83S
AKRON-CANTON   PTSUNNY   47  26  44 SW20G33   29.88S
WOOSTER        NOT AVBL
MANSFIELD      FAIR      46  28  49 SW18G32   29.86R
YOUNGSTOWN     CLOUDY    48  24  39 SW23G32   29.87S
$$

OHZ042-051>053-060>062-070>072-077>081-211700-
  SOUTHWEST OHIO

CITY           SKY/WX    TMP DP  RH WIND       PRES   REMARKS
CINC-COVINGTON FAIR      48  31  51 S18G26    29.95F
CINC-LUNKEN    FAIR      49  32  52 SW21G29   29.97F
HAMILTON       FAIR      50  30  46 SW10G21   29.95F
DAYTON         NOT AVBL
WRIGHT-PAT AFB FAIR      48  26  43 S22G29    29.91S
DAYTON GENERAL FAIR      47  28  47 SW20G25   29.93R
WILMINGTON     FAIR      44  32  62 SW17      29.94F
$$

OHZ036-037-039>041-045>050-054>059-063>069-073>076-082>088-211700-
  CENTRAL AND SOUTHEAST OHIO

CITY           SKY/WX    TMP DP  RH WIND       PRES   REMARKS
COLUMBUS       CLOUDY    47  30  51 SW20G25   29.95S
OSU AIRPORT    FAIR      46  30  53 S14G29    29.92S
BOLTON FIELD   SUNNY     46  30  53 SW22G28   29.94F
RICKENBACK AFB NOT AVBL
NEWARK         FAIR      49  25  39 SW20G29   29.93F
MARION         FAIR      44  29  55 S18G26    29.88S
LANCASTER      FAIR      50  31  48 SW13G30   29.96S
ZANESVILLE     FAIR      48  30  49 SW14G24   29.96F
NEW PHILLY     FAIR      50  27  40 SW14G25   29.95R
$$




USA.gov is the U.S. government's official web portal to all federal, state and local government web resources and services.